Regional Weather Roundup
Issued by NWS Jackson, KY

Home | Current Version | Previous Version | Text Only | Print | Product List | Glossary Off
Versions: 1 2 3 4 5 6 7 8 9 10 11 12 13 14 15 16 17 18 19 20 21 22 23 24 25 26 27 28 29 30 31 32 33 34 35 36 37 38 39 40 41 42 43 44 45 46 47 48 49 50

000
ASUS43 KJKL 300610
RWRJKL

EAST KENTUCKY HOURLY WEATHER ROUNDUP
NATIONAL WEATHER SERVICE JACKSON KY
200 AM EDT THU MAR 30 2017

NOTE: "FAIR" INDICATES FEW OR NO CLOUDS BELOW 12,000 FEET WITH
NO SIGNIFICANT WEATHER AND/OR OBSTRUCTIONS TO VISIBILITY.

* THESE REPORTS ARE NOT UNDER NWS QUALITY CONTROL AND MAY NOT
  REPORT WEATHER SUCH AS PRECIPITATION AND FOG.

KYZ079-080-083-085-087-088-110-112-115-119-120-300700
...EASTERN KENTUCKY...

CITY           SKY/WX    TMP DP  RH WIND       PRES   REMARKS
JACKSON        CLEAR     51  45  79 NE5       29.98F
6HR MIN TEMP:  51; 6HR MAX TEMP:  60;

LONDON         CLOUDY    56  47  71 NE3       29.95F
6HR MIN TEMP:  56; 6HR MAX TEMP:  67;

SOMERSET*      PTCLDY    57  46  67 E3        29.94F
MONTICELLO*    CLOUDY    57  52  83 W5        29.94F
6HR MIN TEMP:  55; 6HR MAX TEMP:  66;

WILLIAMSBURG*  CLOUDY    57  52  82 SE3       29.94F
MIDDLESBORO*   CLEAR     53  50  91 CALM      29.98F
6HR MIN TEMP:  52; 6HR MAX TEMP:  71;

HARLAN APT*    CLEAR     54  50  87 CALM      29.99S
PIKE CO APT*   CLOUDY    50  48  92 NE6       29.99F
BIG SANDY APT* CLEAR     49  46  89 E6        30.00F
6HR MIN TEMP:  49; 6HR MAX TEMP:  57;

MOREHEAD APT*  CLOUDY    54  43  66 VRB6G12   30.01F
ASHLAND*       CLOUDY    45  43  93 CALM      30.00F
$$

KYZ035-036-041-042-044-050-067-078-099-300700
...CENTRAL KENTUCKY...

CITY           SKY/WX    TMP DP  RH WIND       PRES   REMARKS
MT STERLING*   CLOUDY    52  45  76 SE8       29.99F
FLEMING/MASON* PTCLDY    51  43  75 SE9       29.99F
DANVILLE*      CLOUDY    52  46  82 E5        29.95F
LEXINGTON      PTCLDY    54  44  69 E12       29.95F
6HR MIN TEMP:  53; 6HR MAX TEMP:  61;

FRANKFORT      CLOUDY    54  44  69 E10       29.94F
6HR MIN TEMP:  53; 6HR MAX TEMP:  60;

LOUISVILLE     CLOUDY    57  44  62 E9        29.90F
6HR MIN TEMP:  56; 6HR MAX TEMP:  64;

LEBANON*         N/A     55  48  76 E8        29.92F
GLASGOW*       CLOUDY    62  53  72 E3        29.89S
BOWLING GREEN  CLOUDY    62  54  74 E6        29.88R
6HR MIN TEMP:  62; 6HR MAX TEMP:  72;

$$

KYZ091>093-OHZ055-061-077-WVZ005-015-034-035-042-300700
...SOUTHERN OHIO/WEST VIRGINIA...

CITY           SKY/WX    TMP DP  RH WIND       PRES   REMARKS
COVINGTON      CLOUDY    53  44  71 SE14      29.95F
COLUMBUS       CLOUDY    51  34  52 E9        30.04F
DAYTON         CLOUDY    50  36  58 E14       29.99F
WILMINGTON     CLOUDY    48  42  80 E5        29.99F
HUNTINGTON     PTCLDY    51  42  71 E7        30.00F
CHARLESTON     CLEAR     46  43  89 CALM      30.01F
PINEVILLE*     CLEAR     47  43  87 MISG      30.09S
BECKLEY        CLEAR     54  44  69 SE14      30.06S
BLUEFIELD      CLEAR     56  45  66 VRB3      30.09R
LOGAN CO APT*    N/A     52  46  82 CALM      30.00F
$$

VAZ002-007-008-TNZ017-027-036-066-071-300700
...SOUTHWEST VIRGINIA/EAST TENNESSEE...

CITY           SKY/WX    TMP DP  RH WIND       PRES   REMARKS
WISE*          CLEAR     59  45  58 S8        30.04F
JONESVILLE*      N/A     50  48  93 CALM      30.01F
ABINGDON*      CLEAR     57  47  71 E6        30.04F
BRISTOL        CLEAR     51  46  83 CALM      30.01F
MORRISTOWN*    MOCLDY    63  48  59 E5        29.96F
SEVIERVILLE*   CLEAR     54  48  82 CALM      29.95F
LAFOLLETTE*    MOCLDY    54  52  94 CALM      29.99F
OAK RIDGE      CLEAR     58  51  78 CALM      29.95F
CROSSVILLE     PTCLDY    57  51  80 CALM      29.96F
NASHVILLE      CLOUDY    69  58  67 S5        29.88S
$$

...KEY TO REMARKS...
VSB - VISIBILITY IN MILES
WCI - WIND CHILL INDEX
HX  - HEAT INDEX

$$



USA.gov is the U.S. government's official web portal to all federal, state and local government web resources and services.